Regional Weather Roundup
Issued by NWS Cleveland, OH

Home | Current Version | Previous Version | Graphics & Text | Print | Product List | Glossary On
Versions: 1 2 3 4 5 6 7 8 9 10 11 12 13 14 15 16 17 18 19 20 21 22 23 24 25 26 27 28 29 30 31 32 33 34 35 36 37 38 39 40 41 42 43 44 45 46 47 48 49 50
000
ASUS41 KCLE 231400
RWRCLE
OHIO REGIONAL WEATHER ROUNDUP
NATIONAL WEATHER SERVICE WILMINGTON, OH
1000 AM EDT TUE SEP 23 2014

NOTE: "FAIR" INDICATES FEW OR NO CLOUDS BELOW 12,000 FEET WITH NO
SIGNIFICANT WEATHER AND/OR OBSTRUCTIONS TO VISIBILITY.

OHZ001>008-015>018-024>027-034-035-043-044-231500-
   NORTHWEST OHIO

CITY           SKY/WX    TMP DP  RH WIND       PRES   REMARKS
DEFIANCE       SUNNY    N/A N/A N/A CALM      30.36R
FINDLAY        SUNNY     56  46  69 CALM      30.35R
TOLEDO EXPRESS SUNNY     56  48  74 CALM      30.36R
TOLEDO METCALF SUNNY     57  49  74 SE3       30.37R
LIMA           SUNNY     56  49  77 CALM      30.36R
$$

OHZ009>014-019>023-028>033-038-089-231500-
   NORTHEAST OHIO

CITY           SKY/WX    TMP DP  RH WIND       PRES   REMARKS
CLE-HOPKINS    MOSUNNY   54  46  74 SW6       30.38S
CLE-LAKEFRONT  SUNNY     56  44  64 S6        30.35R
CUY CO. ARPT   MOSUNNY   59  48  67 S7        30.37R
LORAIN-ELYRIA  SUNNY     56  47  71 CALM      30.37S
ASHTABULA      SUNNY     53  48  83 S5        30.37R
AKRON-CANTON   SUNNY     54  44  69 SW3       30.37R
WOOSTER        NOT AVBL
MANSFIELD      SUNNY     55  45  68 S3        30.37R
YOUNGSTOWN     MOSUNNY   53  45  74 W3        30.37R
$$

OHZ042-051>053-060>062-070>072-077>081-231500-
  SOUTHWEST OHIO

CITY           SKY/WX    TMP DP  RH WIND       PRES   REMARKS
CINC-COVINGTON SUNNY     58  45  62 SE3       30.35R
CINC-LUNKEN    SUNNY     51  47  86 NE3       30.37R
HAMILTON       SUNNY     56  47  71 CALM      30.37R
DAYTON         NOT AVBL
WRIGHT-PAT AFB SUNNY     54  44  67 CALM      30.36R
DAYTON GENERAL SUNNY     56  46  69 S3        30.36R
WILMINGTON     SUNNY     56  45  66 VRB3      30.35S
$$

OHZ036-037-039>041-045>050-054>059-063>069-073>076-082>088-231500-
  CENTRAL AND SOUTHEAST OHIO

CITY           SKY/WX    TMP DP  RH WIND       PRES   REMARKS
COLUMBUS       SUNNY     56  43  61 SE5       30.37R
OSU AIRPORT    SUNNY     56  44  64 SW3       30.37R
BOLTON FIELD   SUNNY     54  46  76 CALM      30.38R
RICKENBACK AFB NOT AVBL
NEWARK         SUNNY     52  45  77 CALM      30.38R
MARION         SUNNY     54  46  74 S7        30.37R
LANCASTER      SUNNY     53  45  74 CALM      30.37R
ZANESVILLE     SUNNY     51  44  77 CALM      30.38R
NEW PHILLY     PTSUNNY   47  46  97 CALM      30.39R
$$



USA.gov is the U.S. government's official web portal to all federal, state and local government web resources and services.